Volver al catálogo

BREEZE-M DEB

ActivoHEO
NORAD 37200·DEBRIS·🇷🇺 Russia

Lanzado Mar 14, 2008 desde Baikonur Cosmodrome

Loading…

Próximos Pases (próximas 24 horas)

TLE

ActualizadoSource: Space-Track

Época: Sep 12, 2026, 21:31 UTC

1 37200U 08011E   26255.89706891  .00000071  00000-0  00000-0 0  9998
2 37200  48.3490 167.4918 6251202 102.1948   0.4783  3.02111183175613

Sigue BREEZE-M DEB en tiempo real con AllMySat

Download on the App Store